Weather History for Watsonville, CA

Change the Weather History Date:

Sunday, November 18, 2012

  Actual Average Record
Temperature  
Mean Temperature 55 °F 54 °F  
Max Temperature 62 °F 65 °F 87 °F (2005)
Min Temperature 47 °F 43 °F 33 °F (2000)
Degree Days  
Heating Degree Days 10    
Month to date heating degree days 144  
Since 1 July heating degree days 632  
Cooling Degree Days 0    
Month to date cooling degree days 11  
Year to date cooling degree days 79  
Growing Degree Days 4 (Base 50)    
Moisture  
Dew Point 50 °F    
Average Humidity 72    
Maximum Humidity 93    
Minimum Humidity 51    
Precipitation  
Precipitation 0.42 in - 1.77 in (1950)
Month to date precipitation 1.51  
Year to date precipitation 13.89  
Since 1 July precipitation 1.96  
Sea Level Pressure  
Sea Level Pressure 30.10 in    
Wind  
Wind Speed 3 mph (WNW)    
Max Wind Speed 9 mph    
Max Gust Speed 13 mph    
Visibility 8 miles    
Events Rain    
T = Trace of Precipitation, MM = Missing Value Source: NWS Daily Summary

Daily Weather History Graph

Daily Weather History Graph

Search for Another Location

Airport:

Trip Planner

Search our weather history database for the weather conditions in past years. The results will help you decide how hot, cold, wet, or windy it might be!

Date:

Astronomy

Nov. 18, 2012 Rise Set
Actual Time 6:49 AM PST 4:55 PM PST
Civil Twilight 6:21 AM PST 5:23 PM PST
Nautical Twilight 5:49 AM PST 5:54 PM PST
Astronomical Twilight 5:19 AM PST 6:25 PM PST
Moon 11:21 AM PST (11/18) 10:18 PM PST (11/18)
Length of Visible Light 11h 01m
Length of Day
10h 06m
Waxing Crescent, 31% of the Moon is Illuminated
Nov 18
Waxing Crescent
Nov 20
First Quarter
Nov 28
Full
Dec 6
Last Quarter
Dec 13
New

Hourly Weather History & Observations

Time (PST) Temp. Dew Point Humidity Pressure Visibility Wind Dir Wind Speed Gust Speed Precip Events Conditions
12:53 AM 54.0 °F 52.0 °F 93% 30.04 in 4.0 mi Calm Calm - 0.06 in Rain Rain
1:42 AM 53.6 °F 51.8 °F 94% 30.04 in 2.5 mi Calm Calm - 0.09 in Rain Heavy Rain
1:53 AM 54.0 °F 52.0 °F 93% 30.04 in 3.0 mi Calm Calm - 0.11 in Rain Light Rain
2:00 AM 53.6 °F 51.8 °F 94% 30.04 in 2.5 mi Calm Calm - 0.05 in Rain Heavy Rain
2:05 AM 53.6 °F 51.8 °F 94% 30.04 in 1.5 mi Calm Calm - 0.10 in Rain Heavy Rain
2:07 AM 53.6 °F 51.8 °F 94% 30.04 in 1.2 mi Calm Calm - 0.12 in Rain Heavy Rain
2:15 AM 53.6 °F 51.8 °F 94% 30.04 in 2.0 mi NW 3.5 mph - 0.15 in Rain Rain
2:31 AM 53.6 °F 51.8 °F 94% 30.04 in 1.8 mi Calm Calm - 0.20 in Rain Rain
2:36 AM 53.6 °F 51.8 °F 94% 30.04 in 2.0 mi Calm Calm - 0.23 in Rain Heavy Rain
2:48 AM 53.6 °F 51.8 °F 94% 30.05 in 4.0 mi Calm Calm - 0.24 in Rain Light Rain
2:53 AM 53.1 °F 52.0 °F 96% 30.05 in 4.0 mi Calm Calm - 0.24 in Rain Light Rain
3:53 AM 54.0 °F 52.0 °F 93% 30.05 in 10.0 mi Calm Calm - 0.00 in   Overcast
4:08 AM 53.6 °F 53.6 °F 100% 30.05 in 10.0 mi Calm Calm - 0.01 in   Overcast
4:53 AM 54.0 °F 52.0 °F 93% 30.06 in 10.0 mi NE 4.6 mph - 0.01 in   Overcast
5:08 AM 53.6 °F 53.6 °F 100% 30.07 in 10.0 mi Calm Calm - N/A   Overcast
5:53 AM 54.0 °F 53.1 °F 97% 30.07 in 10.0 mi Calm Calm - N/A   Overcast
6:07 AM 53.6 °F 53.6 °F 100% 30.08 in 10.0 mi Calm Calm - N/A   Overcast
6:37 AM 53.6 °F 53.6 °F 100% 30.10 in 10.0 mi Calm Calm - N/A   Overcast
6:44 AM 53.6 °F 53.6 °F 100% 30.10 in 10.0 mi Calm Calm - N/A   Overcast
6:53 AM 54.0 °F 53.1 °F 97% 30.10 in 10.0 mi Calm Calm - N/A   Overcast
7:12 AM 53.6 °F 51.8 °F 94% 30.11 in 10.0 mi Calm Calm - N/A   Scattered Clouds
7:53 AM 55.0 °F 53.1 °F 93% 30.12 in 10.0 mi NNE 3.5 mph - N/A   Mostly Cloudy
8:53 AM 55.0 °F 52.0 °F 89% 30.13 in 10.0 mi Calm Calm - N/A   Overcast
9:25 AM 55.4 °F 51.8 °F 88% 30.13 in 10.0 mi Calm Calm - N/A   Overcast
9:53 AM 57.0 °F 51.1 °F 81% 30.14 in 10.0 mi Calm Calm - N/A   Mostly Cloudy
10:04 AM 57.2 °F 51.8 °F 82% 30.14 in 10.0 mi Calm Calm - N/A   Scattered Clouds
10:53 AM 59.0 °F 50.0 °F 72% 30.14 in 10.0 mi South 5.8 mph - N/A   Partly Cloudy
12:53 PM 61.0 °F 43.0 °F 52% 30.13 in 10.0 mi SSW 8.1 mph - N/A   Clear
1:53 PM 61.0 °F 45.0 °F 56% 30.14 in 10.0 mi West 6.9 mph - N/A   Clear
2:53 PM 60.1 °F 46.9 °F 62% 30.14 in 10.0 mi Variable 4.6 mph - N/A   Clear
3:53 PM 59.0 °F 45.0 °F 60% 30.14 in 10.0 mi Calm Calm - N/A   Clear
4:53 PM 55.0 °F 48.0 °F 77% 30.15 in 10.0 mi WSW 3.5 mph - N/A   Clear
5:53 PM 53.1 °F 48.0 °F 83% 30.16 in 10.0 mi WNW 3.5 mph - N/A   Clear
6:53 PM 52.0 °F 48.0 °F 86% 30.17 in 10.0 mi NW 3.5 mph - N/A   Clear
7:53 PM 50.0 °F 46.9 °F 89% 30.17 in 10.0 mi NNW 3.5 mph - N/A   Clear
8:53 PM 48.9 °F 46.0 °F 90% 30.18 in 10.0 mi WNW 4.6 mph - N/A   Clear
9:53 PM 48.9 °F 45.0 °F 86% 30.19 in 10.0 mi NW 3.5 mph - N/A   Clear
10:53 PM 48.0 °F 44.1 °F 86% 30.19 in 10.0 mi Calm Calm - N/A   Clear
11:53 PM 48.0 °F 44.1 °F 86% 30.19 in 10.0 mi Calm Calm - N/A   Overcast